Location: Haliburton Scout Reserve
(45.0900°N, 78.3200°W)
Time: 11:41:08
(UTC-05:00)

deb Explorer IX - All Passes

Search period start: 29 January 2023 00:00
Search period end: 08 February 2023 00:00
Orbit: 534 x 1049 km, 38.8° (Epoch: 29 January)

Date Brightness Start Highest point End Pass type
(mag) Time Alt. Az. Time Alt. Az. Time Alt. Az.
29 Jan - 06:08:47 10° SSW 06:11:46 20° SSE 06:14:49 10° ESE visible
29 Jan - 07:53:30 10° WSW 07:57:11 34° S 08:01:08 10° ESE daylight
29 Jan - 09:39:07 10° WSW 09:42:45 28° SSW 09:46:45 10° SE daylight
29 Jan - 11:26:11 10° SW 11:28:12 13° SSW 11:30:18 10° S daylight
30 Jan - 05:36:31 10° SSW 05:39:23 19° SSE 05:42:16 10° ESE visible
30 Jan - 07:21:09 10° WSW 07:24:47 33° S 07:28:36 10° ESE daylight
30 Jan - 09:06:45 10° WSW 09:10:20 29° SSW 09:14:13 10° SE daylight
30 Jan - 10:53:39 10° SW 10:55:45 13° SSW 10:57:57 10° S daylight
31 Jan - 05:04:13 10° SSW 05:06:59 18° SSE 05:09:43 10° ESE visible
31 Jan - 06:48:45 10° WSW 06:52:22 32° S 06:56:04 10° ESE visible
31 Jan - 08:34:20 10° WSW 08:37:53 29° S 08:41:40 10° SE daylight
31 Jan - 10:21:07 10° WSW 10:23:18 14° SSW 10:25:35 10° S daylight
01 Feb - 04:31:52 10° SSW 04:34:33 17° SSE 04:37:09 10° ESE visible
01 Feb - 06:16:19 10° WSW 06:19:56 32° S 06:23:34 10° ESE visible
01 Feb - 08:01:55 10° WSW 08:05:28 30° S 08:09:09 10° SE daylight
01 Feb - 09:48:34 10° WSW 09:50:50 14° SSW 09:53:13 10° S daylight
02 Feb - 03:59:30 10° SSW 04:02:06 16° SSE 04:04:36 10° ESE visible
02 Feb - 05:43:50 10° SW 05:47:29 31° S 05:51:04 10° ESE visible
02 Feb - 07:29:26 10° WSW 07:32:59 30° S 07:36:38 10° SE daylight
02 Feb - 09:16:00 10° WSW 09:18:22 15° SSW 09:20:51 10° S daylight
03 Feb - 03:27:06 10° S 03:29:37 15° SSE 03:32:02 10° ESE visible
03 Feb - 05:11:19 10° SW 05:15:01 30° S 05:18:34 10° ESE visible
03 Feb - 06:56:55 10° WSW 07:00:32 31° S 07:04:09 10° SE visible
03 Feb - 08:43:24 10° WSW 08:45:54 16° SSW 08:48:27 10° SSE daylight
04 Feb - 02:54:39 10° S 02:57:06 14° SSE 02:59:26 10° ESE night (unlit)
04 Feb - 04:38:44 10° SW 04:42:31 30° S 04:46:05 10° ESE visible
04 Feb - 06:24:22 10° WSW 06:28:02 32° S 06:31:39 10° ESE visible
04 Feb - 08:10:47 10° WSW 08:13:24 17° SSW 08:16:04 10° SSE daylight
05 Feb - 02:22:11 10° S 02:24:34 14° SSE 02:26:50 10° ESE night (unlit)
05 Feb - 04:06:07 10° SW 04:09:59 29° S 04:13:35 10° ESE visible
05 Feb - 05:51:45 10° WSW 05:55:31 33° S 05:59:09 10° ESE visible
05 Feb - 07:38:07 10° WSW 07:40:54 18° SSW 07:43:41 10° SSE daylight
06 Feb - 01:49:42 10° S 01:52:00 13° SSE 01:54:12 10° SE night (unlit)
06 Feb - 03:33:27 10° SW 03:37:26 29° SSE 03:41:06 10° ESE visible
06 Feb - 05:19:05 10° WSW 05:22:59 34° S 05:26:40 10° ESE visible
06 Feb - 07:05:26 10° WSW 07:08:23 19° SSW 07:11:18 10° SSE daylight
07 Feb - 01:17:11 10° S 01:19:24 13° SSE 01:21:31 10° SE night (unlit)
07 Feb - 03:00:44 10° SW 03:04:51 29° SSE 03:08:35 10° ESE night (unlit)
07 Feb - 04:46:23 10° WSW 04:50:26 35° S 04:54:10 10° ESE visible
07 Feb - 06:32:42 10° WSW 06:35:50 21° SSW 06:38:53 10° SSE visible
